Regional Weather Roundup
Issued by NWS

Home | Current Version | Previous Version | Graphics & Text | Print | Product List | Glossary On
Versions: 1 2 3 4 5 6 7 8 9 10 11 12 13 14 15 16 17 18 19 20 21 22 23 24 25 26 27
000
ASUS45 KCYS 232210
RWRWY

WYOMING REGIONAL WEATHER ROUNDUP
NATIONAL WEATHER SERVICE CHEYENNE WY
400 PM MDT TUE MAY 23 2017

NOTE:  "FAIR" INDICATES FEW OR NO CLOUDS BELOW 12,000 FEET
WITH NO SIGNIFICANT WEATHER AND/OR OBSTRUCTIONS TO VISIBILITY.

WYZ001-232300-
YELLOWSTONE NATIONAL PARK

CITY           SKY/WX    TMP DP  RH WIND       PRES   REMARKS
LK YELLOWSTONE   N/A     54  33  45 E3        30.24F
W YELLOWSTONE  NOT AVBL

$$
WYZ002>013-054>058-071-098>099-232300-
NORTHERN WYOMING

CITY           SKY/WX    TMP DP  RH WIND       PRES   REMARKS
JACKSON        SUNNY     68  30  24 W7        30.16F
CODY           FAIR      68  34  28 VRB3      30.08F
GREYBULL       FAIR      73  20  13 N10       30.03F
WORLAND        FAIR      70  25  18 CALM      30.06F
SHERIDAN       FAIR      66  37  34 VRB6      30.08F
BUFFALO        FAIR      63  33  32 VRB7      30.13F
GILLETTE       FAIR      61  34  36 N6        30.11F
HULETT         FAIR      61  32  33 N6        30.10F
NEWCASTLE      FAIR      63  28  27 N16G24    30.09F

$$
WYZ014>020-022>026-101>103-232300-
CENTRAL WYOMING

CITY           SKY/WX    TMP DP  RH WIND       PRES   REMARKS
BIG PINEY      FAIR      69  30  23 NW15      30.19F
PINEDALE       FAIR      64  30  27 NW12      30.19F
DUBOIS         FAIR      64  25  22 N10G20    30.17F
LANDER         FAIR      65  28  24 VRB6      30.12F
RIVERTON       FAIR      65  29  25 E7G16     30.13F
CASPER         FAIR      62  37  39 N8        30.13F
DOUGLAS        FAIR      62  32  32 NW14G22   30.13F

$$
WYZ021-027>030-104>119-232300-
SOUTHERN WYOMING

CITY           SKY/WX    TMP DP  RH WIND       PRES   REMARKS
EVANSTON       FAIR      66  36  32 W7        30.23F
KEMMERER         N/A     64  32  29 W12G23    30.23F
FORT BRIDGER   MOCLDY    69  34  26 NW16G23   30.24F
ROCK SPRINGS   FAIR      64  22  20 W10       30.21F
DIXON            N/A     62  30  29 NW8G16    30.24F
RAWLINS        FAIR      61  22  22 NW12      30.19F
SARATOGA       FAIR      59  25  27 NW15G23   30.21F
LARAMIE        PTSUNNY   53  28  38 NW20G30   30.17F
CHEYENNE       PTSUNNY   54  30  40 N16G29    30.14F
TORRINGTON     PTSUNNY   62  28  27 N16G31    30.07F
PINE BLUFFS    FAIR      59  30  33 N22G32    30.11F

$$




USA.gov is the U.S. government's official web portal to all federal, state and local government web resources and services.